SCP
0 0 0 0 0 0 0 0 0 0 0 0 0 0 0 0 0 0 0 0 0 0 0 0 0 0 0 0 0 0 0 0 0 0 0 0 0 0 0 0 0 0 0
0 0 0 0 0 0 0 0 0 0 0 0 0 0 0 0 0 0 0 0 0 0 0 0 0 0 0 0 0 0 0 0 0 0 0 0 0 0 0 0 0 0 0
0 0 0 0 0 0 0 0 0 0 0 0 0 0 0 0 0 0 0 0 0 0 0 0 0 0 0 0 0 0 0 0 0 0 0 0 0 0 0 1 1 1 1
0 0 0 0 0 0 0 0 0 0 0 0 0 0 0 0 0 0 0 0 0 0 0 0 0 0 0 0 0 0 0 0 0 0 0 0 0 0 0 1 1 1 1
0 0 0 0 0 0 0 0 0 0 0 0 0 0 0 0 0 0 0 0 0 0 0 0 0 0 0 0 0 0 0 0 0 0 0 0 0 0 0 1 1 1 1
0 0 0 0 0 0 0 0 0 0 0 0 0 0 0 0 0 0 0 0 0 0 0 0 0 0 0 0 0 0 0 0 0 0 0 0 0 0 0 1 1 1 1
0 1 1 0 0 1 1 1 0 0 0 0 0 0 0 0 0 0 0 0 0 0 0 0 0 0 0 0 0 0 0 0 0 1 1 1 0 0 0 0 1 1 1
1 1 1 1 1 1 1 1 1 0 0 0 0 0 0 0 0 0 0 0 0 0 0 0 0 0 0 0 0 0 0 0 1 1 1 1 1 0 0 0 0 1 1
1 1 1 1 1 1 1 1 1 0 0 0 0 0 0 0 0 0 0 0 0 0 0 0 0 0 0 0 0 0 0 0 0 0 0 1 1 0 0 0 0 1 1
1 1 1 1 1 1 1 1 1 0 0 0 0 0 0 0 0 0 0 0 0 0 0 0 0 0 0 0 0 0 0 0 0 0 0 0 0 0 0 0 0 0 0
1 1 1 1 1 1 1 1 1 0 0 0 0 0 0 0 0 0 0 0 0 0 0 0 0 0 0 0 0 0 0 0 0 0 0 0 0 0 0 0 0 0 0
1 1 1 1 1 1 1 1 1 0 0 0 0 0 0 0 0 0 0 0 0 0 0 0 0 0 0 0 0 0 0 0 0 0 0 0 0 0 0 0 0 0 0
1 1 1 1 1 1 1 1 1 1 0 0 0 0 0 0 0 0 0 0 0 0 0 0 0 0 0 0 0 0 0 0 0 0 0 0 0 0 0 0 0 0 0
1 1 1 1 1 1 1 1 1 1 1 0 0 0 0 0 0 0 0 0 0 0 0 0 0 0 0 0 0 0 0 0 0 0 0 0 0 0 0 0 0 0 0
1 1 1 1 0 0 1 1 1 1 1 0 0 0 0 0 0 0 0 0 0 0 0 0 0 0 0 0 0 0 0 0 0 0 0 0 0 0 0 0 0 0 0
1 1 1 1 1 0 0 0 0 0 0 0 0 0 0 0 0 0 0 0 0 0 0 0 0 0 0 0 0 0 0 0 0 0 0 0 0 0 0 0 0 0 0
1 1 1 1 1 1 1 1 0 0 0 0 0 0 0 0 0 0 0 0 0 0 0 0 0 0 0 0 0 0 0 0 0 0 0 0 0 0 0 0 0 0 0
1 1 1 1 1 1 1 1 1 1 0 0 0 0 0 0 0 0 0 0 0 0 0 0 0 0 0 0 0 0 0 0 0 0 0 0 0 0 0 0 0 0 0
1 1 1 1 1 1 1 1 1 1 0 0 0 0 0 0 0 0 0 0 0 0 0 0 0 0 0 0 0 0 0 0 0 0 0 0 0 0 0 0 0 0 0
0 0 0 0 0 1 1 1 1 0 0 0 0 0 0 0 0 0 0 0 0 0 0 0 0 0 0 0 0 0 0 0 0 0 0 0 0 0 0 0 0 0 0
0 0 0 0 0 0 0 0 0 0 0 0 0 0 0 0 0 0 0 0 0 0 0 0 0 0 0 0 0 0 0 0 0 0 0 0 0 0 0 0 0 0 0
0 0 0 0 0 0 0 0 0 0 0 0 0 0 0 0 0 0 0 0 0 0 0 0 0 0 0 0 0 0 0 0 0 0 0 0 0 0 0 0 0 0 0
0 0 0 0 0 0 0 0 0 0 0 0 0 0 0 0 0 0 0 0 0 0 0 0 0 0 0 0 0 0 0 0 0 0 0 0 0 0 0 0 0 0 0
0 0 0 0 0 0 0 0 0 0 0 0 0 0 0 0 0 0 0 0 0 0 0 0 0 0 0 0 0 0 0 0 0 0 0 0 0 0 0 0 0 0 0
0 0 0 0 0 0 0 0 0 0 0 0 0 0 0 0 0 0 0 0 0 0 0 0 0 0 0 0 0 0 0 0 0 0 0 0 0 0 0 0 0 0 0
0 0 0 0 0 0 0 0 0 0 0 0 0 0 0 0 0 0 0 0 0 0 0 0 0 0 0 0 0 0 0 0 0 0 0 0 0 0 0 0 0 0 0
Wind_Speed
3 3 2 3 3 3 4 4 4 4 4 4 4 4 4 4 4 3 2 6 8 10 11 11 11 12 12 11 11 11 10 10 10 9 10 10 10 11 11 11 11 11 11
3 3 3 3 3 3 3 4 5 4 4 3 4 4 5 5 4 4 4 5 9 10 12 12 12 13 13 12 12 12 12 11 10 10 9 10 10 11 11 11 12 12 12
3 3 3 3 3 4 4 3 4 3 3 3 4 5 5 5 5 5 5 4 5 8 11 12 13 13 13 12 12 12 12 12 11 10 10 9 10 10 10 10 11 12 12
4 3 3 3 3 3 3 3 3 3 4 4 4 4 4 4 5 6 5 5 4 4 7 11 12 12 12 12 12 11 11 11 11 10 9 9 10 10 10 11 11 12 12
4 3 3 3 3 3 3 3 3 3 3 4 4 3 4 4 5 5 6 6 5 5 4 6 9 10 10 11 11 11 11 11 10 10 9 9 10 10 11 11 11 12 12
4 4 3 3 3 3 3 3 3 3 3 3 3 4 4 5 5 5 6 6 5 5 5 4 4 5 8 9 10 10 10 10 10 10 9 9 10 10 11 11 12 12 11
5 5 3 4 3 4 4 4 4 4 3 2 2 4 5 7 7 6 5 5 5 4 4 4 3 2 3 6 9 10 11 11 11 10 10 10 11 11 11 12 12 12 12
6 5 5 4 4 4 5 5 4 3 3 3 3 2 3 3 4 5 4 4 4 3 3 4 3 3 3 2 4 8 10 10 11 11 10 10 11 11 12 12 12 12 12
5 5 6 5 5 5 5 5 5 6 4 4 4 3 3 3 2 3 4 4 3 3 3 3 4 4 4 3 3 4 6 8 9 10 10 9 10 11 11 11 11 11 12
4 5 5 6 6 5 5 5 5 5 5 5 4 4 4 2 2 3 2 3 4 4 4 3 3 3 3 2 2 2 4 4 5 6 7 8 9 10 10 11 11 11 11
1 2 3 3 4 4 5 5 5 5 5 6 4 3 4 4 5 4 5 3 2 3 3 3 3 2 2 2 2 2 2 3 4 4 6 7 8 9 10 11 11 11 11
1 2 2 3 4 4 4 5 5 6 6 6 5 4 3 3 4 5 6 5 4 3 3 3 3 2 2 2 2 2 3 3 4 4 5 6 7 7 9 10 10 10 10
2 3 3 3 3 3 4 4 4 5 6 6 6 5 5 5 3 4 5 5 5 3 2 2 2 2 2 1 2 3 3 4 4 5 5 6 6 7 8 9 9 9 9
2 3 3 3 3 3 4 3 3 4 4 5 6 6 5 4 4 4 4 4 5 4 3 4 2 2 2 2 3 4 3 4 5 5 6 6 6 6 7 8 8 9 9
3 4 4 4 3 3 4 4 3 4 4 4 4 5 4 4 3 4 3 4 5 6 6 3 2 2 2 2 2 2 3 4 5 5 5 6 6 6 6 7 8 9 9
4 4 4 3 4 4 4 3 3 3 3 3 3 4 4 4 3 3 4 4 5 6 7 3 2 2 1 1 2 2 3 4 4 5 5 6 6 6 6 7 7 8 9
4 4 4 4 4 3 3 3 3 4 3 3 3 3 4 4 4 4 3 4 4 5 7 5 2 1 2 2 2 2 2 3 3 4 5 6 6 6 6 7 8 8 9
4 4 3 3 3 3 3 3 4 4 4 4 4 4 5 3 4 4 3 4 4 4 5 7 4 2 3 2 2 2 2 2 3 4 5 6 6 6 7 7 7 8 8
5 5 4 4 4 4 3 3 3 3 4 4 4 4 5 4 5 4 4 4 4 3 3 4 4 2 2 1 2 2 2 2 3 4 5 5 6 7 7 7 7 8 8
4 5 4 4 4 4 4 4 4 4 4 4 5 4 5 4 5 4 4 4 4 4 4 4 4 3 3 2 1 2 3 2 3 3 3 4 5 6 7 7 7 8 8
4 4 4 4 4 4 4 5 5 5 5 5 5 4 4 4 5 5 4 4 4 4 4 4 4 4 3 2 2 2 3 3 3 1 2 3 3 3 4 5 6 8 8
4 4 3 4 4 4 6 7 6 4 4 4 5 5 4 4 5 5 5 5 5 5 5 5 5 5 5 3 2 2 2 2 3 1 2 4 2 3 3 3 6 8 9
4 4 4 3 4 5 7 7 7 4 4 4 4 4 4 4 4 4 5 5 5 5 5 5 6 6 4 3 3 4 4 4 4 2 2 4 2 3 3 4 7 8 8
4 4 4 4 3 4 7 7 6 4 3 3 3 3 3 4 4 5 4 4 4 4 4 3 3 4 3 2 3 3 4 3 3 2 1 3 2 3 3 3 6 7 7
5 4 4 4 4 4 6 7 7 3 3 3 3 3 3 4 5 6 4 4 4 4 3 3 3 3 4 4 3 1 1 2 3 2 1 2 2 3 3 3 3 5 6
5 5 5 4 4 5 6 7 7 3 3 3 3 3 3 4 6 5 3 3 4 4 4 3 3 3 3 3 3 1 1 2 2 3 1 1 2 2 3 2 2 3 3
Wind_Direction
187 188 190 193 196 196 198 202 212 218 220 227 231 231 238 245 248 246 232 223 223 234 250 258 260 261 261 264 265 264 263 265 265 265 266 267 267 268 268 268 270 273 275
193 189 197 198 206 206 206 205 211 218 220 220 231 236 239 242 242 244 237 232 230 232 243 252 257 261 264 266 266 266 266 267 267 266 266 267 268 268 269 269 270 272 273
205 197 195 199 209 210 208 213 223 220 218 221 230 236 238 240 242 246 245 238 232 229 233 244 252 258 262 266 269 269 269 269 269 269 268 267 269 271 272 272 273 274 274
208 212 208 208 207 205 204 210 221 226 225 225 233 239 238 236 239 244 247 245 238 229 227 234 243 249 256 262 267 270 272 273 274 274 273 271 271 272 273 275 275 275 275
206 210 216 223 211 208 211 216 219 219 231 235 237 246 249 249 247 245 244 243 239 231 223 225 230 238 247 255 262 267 270 273 276 278 278 277 276 276 278 279 279 279 278
212 210 219 230 223 214 214 217 227 226 229 238 257 259 253 248 245 241 242 241 236 230 226 223 222 229 238 249 258 265 268 271 275 277 278 279 279 277 278 279 279 280 280
213 209 218 224 224 223 222 216 219 228 231 221 261 275 261 245 238 237 233 232 229 225 221 219 214 215 224 236 250 261 266 270 275 277 278 279 280 281 280 279 278 280 281
214 212 213 218 220 227 234 228 219 222 226 204 209 258 284 280 250 234 227 226 226 219 221 219 214 215 217 216 238 249 262 269 274 277 278 281 282 283 283 282 282 281 282
217 215 216 217 220 224 230 230 227 221 226 220 207 208 232 254 297 262 229 221 218 221 229 224 219 221 222 218 230 246 253 264 273 279 281 283 284 285 286 286 287 287 288
231 226 226 223 221 222 229 230 226 231 224 227 226 224 229 228 252 289 278 234 224 227 231 230 225 225 222 224 226 248 257 266 278 283 286 286 285 285 285 286 288 289 291
260 252 246 242 240 234 234 233 228 228 229 230 223 223 237 242 234 241 266 262 250 234 230 227 223 222 217 213 212 243 249 258 269 278 287 289 287 287 287 287 288 289 290
303 316 292 261 253 246 243 243 239 234 232 236 233 221 216 224 226 231 247 255 255 243 235 226 215 206 202 208 216 222 234 250 266 273 282 287 287 288 287 288 290 292 294
331 335 325 300 285 276 261 248 248 252 244 239 238 238 233 237 236 235 241 252 257 254 241 228 213 203 207 220 238 237 244 258 269 274 278 284 285 286 287 287 290 293 294
329 336 331 329 323 307 293 268 252 249 249 248 249 247 245 245 242 238 239 247 262 259 243 238 221 208 213 217 240 234 250 258 271 274 276 278 282 288 289 289 291 293 294
345 347 340 342 342 341 330 310 271 258 252 250 253 256 257 254 249 251 249 239 245 259 257 237 228 222 219 219 233 230 235 251 263 269 276 282 286 289 289 290 292 294 294
350 349 346 342 342 342 337 334 323 306 278 262 255 257 260 260 253 248 248 250 246 251 262 251 230 235 221 237 239 238 239 249 252 264 279 285 287 293 294 291 290 291 294
347 343 342 340 338 335 331 328 324 326 311 303 297 276 271 270 263 260 255 253 250 246 257 267 253 253 218 235 257 253 251 249 250 260 276 281 284 292 293 291 292 294 295
346 339 338 337 336 333 331 331 322 318 315 310 310 299 281 281 275 268 263 260 256 251 254 265 263 256 251 239 247 255 266 273 265 269 273 275 285 291 293 293 296 300 301
347 346 346 339 333 328 328 323 313 314 310 304 301 299 300 291 275 270 266 266 267 271 263 259 265 260 258 253 267 267 266 263 273 276 275 276 283 285 287 289 294 298 299
347 344 340 335 329 329 332 330 324 319 312 306 303 301 302 302 297 297 284 279 277 273 268 259 260 261 255 258 254 264 278 269 273 283 277 282 283 283 284 288 292 293 296
340 335 337 338 342 342 345 343 330 317 310 309 312 315 314 317 317 304 294 290 280 269 266 262 258 259 252 252 253 258 268 285 277 263 284 277 275 270 266 275 281 286 294
334 334 333 333 337 339 344 345 339 325 321 318 315 314 313 317 321 310 302 298 288 275 270 265 260 257 258 257 258 258 265 280 276 276 290 283 273 272 270 263 285 293 295
326 327 324 324 325 333 341 344 344 331 322 317 316 320 325 329 321 316 315 312 302 288 273 269 267 267 272 272 261 252 249 255 258 273 295 274 268 271 274 284 289 293 299
317 313 314 314 314 326 333 333 333 326 321 321 319 318 320 324 331 329 322 319 313 307 304 286 274 282 289 294 273 266 265 273 276 267 235 262 272 275 289 279 281 292 304
308 308 308 312 308 310 320 323 325 314 317 318 321 325 324 320 325 329 325 316 311 310 326 316 306 310 321 323 321 303 267 266 278 266 238 250 275 299 290 271 278 297 310
301 304 303 303 303 303 309 317 321 311 312 312 308 306 304 311 313 323 316 307 305 311 319 324 327 334 333 340 351 321 265 253 267 268 254 270 269 314 300 282 290 300 305